COSMOS 2115

Satellite information

Favourite Embed

Satellite Type and Status

PAYLOADIN ORBIT

Key statistics

Satellite COSMOS 2115 at a glance.

Uptime

12617

Days in orbit

Revolutions

≈ 12.6

Per day

Orbit

LEO

Low Earth Orbit

Inclination

82.6

Latest

Satellite identification and parameters

Extended collection of information and parameters for COSMOS 2115.

Object identification

Identified? True

Debris? False

Object name: COSMOS 2115

International designator: 1990-114B

Object number (NORAD): 21029

Object ID (CCSDS): 21029

Country: COMMONWEALTH OF INDEPENDENT STATES (CIS)

Current information (Y/N): Y

RCS size: LARGE

Orbital parameters

Period: 113.967 minutes

Inclination: 82.5673 deg

SMA: 7786.579 km

Apoapsis: 1410.339 km

Periapsis: 1406.55 km

RAAN: 72.2234 deg

Eccentricy: 0.0002433

Argument of periapsis: 270.6061 deg

Mean anomaly: 100.5301 deg

Mean motion: 12.63521707 rev/day

Mean motion (dot): 0.00000027 rev/day2

B* drag term: 0.000089305 1/REarth

Two-line elements (TLE)

Creation date: July 8, 2025, 2:27 a.m.

Reference frame: TEME

Reference center: EARTH

Epoch: July 7, 2025, 10:41 p.m. UTC

TLE line 0: 0 COSMOS 2115

TLE line 1: 1 21029U 90114B 25188.94576163 .00000027 00000-0 89305-4 0 9992

TLE line 2: 2 21029 82.5673 72.2234 0002433 270.6061 100.5301 12.63521707592933

Live tracking on map

Real-time ground track for satellite COSMOS 2115.

In-orbit conjunctions

A list of the most updated potential collisions computed for object COSMOS 2115.

Target Orbit TCA Probability of collision Miss distance Type
THORAD DELTA 1 DEB SSO 2024-12-24 13:46:46 0.0001835077 386.0 (m) DEBRIS

Associated space launch

Second generation store-dump military communications satellite

COSMOS 2115 was lifted into orbit during the mission ‘Tsiklon-3 | Strela-3 55 to 60’, on board a Tsiklon-3 space rocket.

The launch took place on Dec. 22, 1990, 7:28 a.m. from 32/2.

For more information about the launch, click the button.

Launch to space Tsiklon-3 | Strela-3 55 to 60
Tsiklon-3 | Strela-3 55 to 60

Agency: N/A

Status: Launch Successful

Launch date: Dec. 22, 1990, 7:28 a.m. UTC

Rocket: Tsiklon-3

Launch pad: 32/2

Location: Plesetsk Cosmodrome, Russian Federation

...

Latest news about this satellite

There are no fresh news available about this satellite. Check back as we update our databases every day.


Newsletter sign-up

Weekly statistics, charts and insights to help you stay on top of the space industry.